Location: *
(10.5081°N, 66.9194°W)
Time: 02:43:21
(UTC+00:00)

USA 229 - Pass Details

Date: 30 March 2020
Orbit: 984 x 1228 km, 63.4° (Epoch: 21 May)

Event Time Altitude Azimuth Distance (km) Brightness Sun altitude
Rises 23:03:24 0° 348° (NNW) 4,066 7.0 -6.9°
Reaches altitude 10° 23:06:17 10° 355° (N) 3,128 6.3 -7.7°
Maximum altitude 23:13:23 43° 65° (ENE) 1,656 4.3 -9.4°
Drops below altitude 10° 23:20:34 10° 134° (SE) 3,178 5.7 -11.1°
Enters shadow 23:22:50 - 139° (SE) 3,913 6.2 -11.7°
